TimeMDT,TemperatureF,Dew PointF,Humidity,Sea Level PressureIn,VisibilityMPH,Wind Direction,Wind SpeedMPH,Gust SpeedMPH,PrecipitationIn,Events,Conditions,WindDirDegrees,DateUTC
12:00 AM,26.6,26.6,100,30.23,0.2,SW,25.3,44.9,N/A,Snow,Heavy Snow,230,2013-05-07 06:00:00
12:20 AM,26.6,26.6,100,30.24,1.2,SW,23.0,-,0.01,Snow,Light Snow,220,2013-05-07 06:20:00
12:41 AM,26.6,26.6,100,30.24,0.5,SW,18.4,31.1,0.01,Snow,Snow,230,2013-05-07 06:41:00
1:01 AM,26.6,26.6,100,30.24,0.5,SW,25.3,35.7,N/A,Snow,Snow,230,2013-05-07 07:01:00
1:21 AM,26.6,26.6,100,30.23,0.5,SW,25.3,33.4,N/A,Snow,Light Snow,230,2013-05-07 07:21:00
1:41 AM,26.6,26.6,100,30.24,0.2,SW,21.9,26.5,N/A,Snow,Light Snow,230,2013-05-07 07:41:00
2:01 AM,26.6,26.6,100,30.24,7.0,SW,18.4,28.8,N/A,,Overcast,230,2013-05-07 08:01:00
2:21 AM,26.6,26.6,100,30.24,0.5,SW,16.1,28.8,0.01,Snow,Snow,220,2013-05-07 08:21:00
2:41 AM,26.6,26.6,100,30.23,0.2,SW,15.0,21.9,0.02,Snow,Snow,230,2013-05-07 08:41:00
3:01 AM,26.6,26.6,100,30.22,0.2,SW,27.6,40.3,0.01,Snow,Heavy Snow,220,2013-05-07 09:01:00
3:21 AM,26.6,26.6,100,30.22,0.8,SW,24.2,34.5,0.05,Snow,Light Snow,230,2013-05-07 09:21:00
3:40 AM,26.6,26.6,100,30.22,3.0,SW,27.6,34.5,0.06,,Overcast,230,2013-05-07 09:40:00
4:01 AM,26.6,24.8,93,30.22,10.0,SW,19.6,27.6,N/A,,Overcast,230,2013-05-07 10:01:00
4:41 AM,26.6,24.8,93,30.22,10.0,SW,27.6,34.5,N/A,,Overcast,230,2013-05-07 10:41:00
5:01 AM,26.6,26.6,100,30.21,1.0,SW,24.2,32.2,N/A,,Overcast,230,2013-05-07 11:01:00
5:21 AM,26.6,26.6,100,30.21,1.2,SW,26.5,33.4,N/A,,Overcast,230,2013-05-07 11:21:00
5:41 AM,26.6,26.6,100,30.21,0.8,SW,26.5,36.8,N/A,,Overcast,220,2013-05-07 11:41:00
6:01 AM,26.6,26.6,100,30.21,0.8,SW,21.9,33.4,N/A,,Overcast,230,2013-05-07 12:01:00
6:21 AM,26.6,24.8,93,30.21,2.0,SW,23.0,33.4,N/A,,Overcast,230,2013-05-07 12:21:00
6:41 AM,26.6,26.6,100,30.22,0.8,SW,25.3,32.2,N/A,,Overcast,230,2013-05-07 12:41:00
7:01 AM,26.6,26.6,100,30.22,0.2,SW,24.2,33.4,N/A,Fog,Light Freezing Fog,230,2013-05-07 13:01:00
7:21 AM,26.6,26.6,100,30.22,0.2,SW,23.0,29.9,N/A,Fog,Light Freezing Fog,230,2013-05-07 13:21:00
7:40 AM,26.6,26.6,100,30.22,0.2,SW,19.6,26.5,N/A,Fog,Light Freezing Fog,230,2013-05-07 13:40:00
8:00 AM,26.6,26.6,100,30.22,0.2,SW,20.7,27.6,N/A,Fog,Light Freezing Fog,230,2013-05-07 14:00:00
8:21 AM,26.6,26.6,100,30.24,0.5,SW,18.4,27.6,N/A,Fog,Light Freezing Fog,230,2013-05-07 14:21:00
8:41 AM,26.6,26.6,100,30.23,0.8,WSW,18.4,28.8,N/A,,Overcast,240,2013-05-07 14:41:00
9:01 AM,26.6,26.6,100,30.23,0.5,SW,20.7,28.8,N/A,Fog,Light Freezing Fog,230,2013-05-07 15:01:00
9:21 AM,26.6,26.6,100,30.24,0.2,SW,19.6,28.8,N/A,Fog,Light Freezing Fog,230,2013-05-07 15:21:00
9:41 AM,26.6,26.6,100,30.24,0.2,SW,16.1,23.0,N/A,Fog,Light Freezing Fog,230,2013-05-07 15:41:00
10:00 AM,26.6,26.6,100,30.24,5.0,WSW,15.0,26.5,N/A,,Overcast,250,2013-05-07 16:00:00
10:20 AM,28.4,28.4,100,30.24,1.8,SSW,9.2,26.5,N/A,,Overcast,210,2013-05-07 16:20:00
10:41 AM,28.4,28.4,100,30.24,2.5,SW,13.8,24.2,N/A,,Overcast,230,2013-05-07 16:41:00
11:01 AM,30.2,30.2,100,30.24,10.0,SSW,16.1,29.9,N/A,,Overcast,210,2013-05-07 17:01:00
11:21 AM,28.4,28.4,100,30.24,3.0,WSW,20.7,26.5,N/A,Snow-Thunderstorm,Light Thunderstorms and Snow,240,2013-05-07 17:21:00
11:41 AM,30.2,30.2,100,30.24,3.0,SSW,11.5,19.6,0.01,,Overcast,210,2013-05-07 17:41:00
12:01 PM,28.4,28.4,100,30.25,1.5,WSW,13.8,23.0,N/A,Snow,Light Snow,240,2013-05-07 18:01:00
12:21 PM,28.4,28.4,100,30.25,1.8,SW,16.1,23.0,0.01,Snow,Light Snow,230,2013-05-07 18:21:00
12:41 PM,28.4,28.4,100,30.24,10.0,SW,12.7,21.9,0.01,,Overcast,220,2013-05-07 18:41:00
1:01 PM,30.2,30.2,100,30.24,4.0,SSW,13.8,21.9,N/A,,Overcast,210,2013-05-07 19:01:00
1:21 PM,30.2,30.2,100,30.24,10.0,SW,16.1,24.2,N/A,,Overcast,230,2013-05-07 19:21:00
1:41 PM,30.2,28.4,93,30.24,10.0,SW,15.0,25.3,N/A,,Overcast,230,2013-05-07 19:41:00
2:01 PM,32.0,28.4,87,30.24,10.0,SSW,18.4,24.2,N/A,,Mostly Cloudy,210,2013-05-07 20:01:00
2:21 PM,32.0,28.4,87,30.23,10.0,SW,19.6,28.8,N/A,,Scattered Clouds,230,2013-05-07 20:21:00
2:40 PM,32.0,28.4,87,30.22,10.0,SW,15.0,26.5,N/A,,Mostly Cloudy,220,2013-05-07 20:40:00
3:01 PM,32.0,26.6,80,30.22,10.0,WSW,15.0,27.6,N/A,,Mostly Cloudy,240,2013-05-07 21:01:00
3:21 PM,33.8,26.6,75,30.22,10.0,SW,19.6,31.1,N/A,,Mostly Cloudy,230,2013-05-07 21:21:00
3:41 PM,32.0,26.6,80,30.22,10.0,SW,18.4,32.2,N/A,,Mostly Cloudy,220,2013-05-07 21:41:00
4:01 PM,32.0,24.8,75,30.21,10.0,SW,19.6,27.6,N/A,,Overcast,220,2013-05-07 22:01:00
4:21 PM,32.0,23.0,69,30.21,10.0,SSW,17.3,28.8,N/A,,Overcast,200,2013-05-07 22:21:00
4:41 PM,32.0,24.8,75,30.21,10.0,SW,15.0,32.2,N/A,,Overcast,220,2013-05-07 22:41:00
5:01 PM,32.0,23.0,69,30.21,10.0,SW,16.1,26.5,N/A,,Overcast,230,2013-05-07 23:01:00
5:21 PM,32.0,23.0,69,30.20,10.0,SW,23.0,31.1,N/A,Thunderstorm,Overcast,230,2013-05-07 23:21:00
5:41 PM,32.0,21.2,64,30.20,10.0,SW,18.4,29.9,N/A,,Overcast,230,2013-05-07 23:41:00
6:21 PM,33.8,19.4,56,30.20,10.0,SW,18.4,25.3,N/A,Thunderstorm,Scattered Clouds,220,2013-05-08 00:21:00
6:41 PM,33.8,14.0,44,30.20,10.0,SW,17.3,34.5,N/A,Thunderstorm,Clear,220,2013-05-08 00:41:00
7:01 PM,32.0,17.6,55,30.20,10.0,WSW,17.3,26.5,N/A,Thunderstorm,Mostly Cloudy,240,2013-05-08 01:01:00
7:21 PM,32.0,17.6,55,30.20,10.0,SW,13.8,20.7,N/A,Thunderstorm,Thunderstorm,220,2013-05-08 01:21:00
7:40 PM,32.0,15.8,51,30.20,10.0,SW,15.0,25.3,N/A,Thunderstorm,Mostly Cloudy,230,2013-05-08 01:40:00
8:01 PM,32.0,14.0,48,30.20,10.0,SW,19.6,24.2,N/A,,Scattered Clouds,230,2013-05-08 02:01:00
8:21 PM,32.0,12.2,44,30.20,10.0,SW,13.8,20.7,N/A,,Scattered Clouds,230,2013-05-08 02:21:00
8:40 PM,32.0,12.2,44,30.20,10.0,SW,12.7,20.7,N/A,,Scattered Clouds,230,2013-05-08 02:40:00
9:01 PM,32.0,12.2,44,30.21,10.0,SW,11.5,-,N/A,,Mostly Cloudy,230,2013-05-08 03:01:00
9:21 PM,30.2,12.2,47,30.21,10.0,SW,8.1,-,N/A,,Scattered Clouds,220,2013-05-08 03:21:00
9:41 PM,30.2,14.0,51,30.21,10.0,SW,11.5,-,N/A,,Clear,220,2013-05-08 03:41:00
10:01 PM,32.0,14.0,48,30.22,10.0,SW,12.7,-,N/A,,Mostly Cloudy,220,2013-05-08 04:01:00
10:21 PM,32.0,12.2,44,30.21,10.0,SW,16.1,31.1,N/A,,Overcast,230,2013-05-08 04:21:00
10:41 PM,30.2,14.0,51,30.21,10.0,SW,18.4,31.1,N/A,,Overcast,220,2013-05-08 04:41:00
11:01 PM,30.2,15.8,55,30.21,10.0,SSW,13.8,28.8,N/A,,Overcast,210,2013-05-08 05:01:00
11:21 PM,30.2,17.6,60,30.20,10.0,SSW,8.1,17.3,N/A,,Overcast,200,2013-05-08 05:21:00
11:41 PM,30.2,17.6,60,30.21,10.0,SSW,6.9,-,N/A,,Mostly Cloudy,210,2013-05-08 05:41:00